K0KDS Weather Reports


time (UTC)temp
C
wind
direction
speed
KPH
gust
KPH
rain 1hr
cm
rain 24hr
cm
rain mn
cm
humidity
%
barometer
mb
20260906150226 25 109 3.2 12.9 0.00 0.00 0.00 86 1015.4
20260906144726 25 99 8.0 12.9 0.00 0.00 0.00 88 1015.3
20260906143226 24 107 4.8 14.5 0.00 0.00 0.00 89 1015.5
20260906141726 24 127 6.4 14.5 0.00 0.00 0.00 88 1015.7
20260906140226 23 96 4.8 16.1 0.00 0.00 0.00 89 1015.7
20260906134726 24 129 8.0 17.7 0.00 0.00 0.00 87 1015.5
20260906133226 23 220 4.8 17.7 0.00 0.00 0.00 89 1015.5
20260906131726 23 110 11.3 16.1 0.00 0.00 0.00 89 1015.4
20260906130226 23 99 4.8 11.3 0.00 0.00 0.00 91 1015.5
20260906124726 23 150 3.2 11.3 0.00 0.00 0.00 91 1015.4
20260906123226 22 98 6.4 9.7 0.00 0.00 0.00 92 1015.0
20260906121726 22 110 8.0 11.3 0.00 0.00 0.00 92 1014.8
20260906120226 22 94 8.0 17.7 0.00 0.00 0.00 91 1014.7
20260906114726 22 94 8.0 11.3 0.00 0.00 0.00 91 1014.5
20260906113226 22 93 4.8 12.9 0.00 0.00 0.00 91 1014.4
20260906111726 23 125 12.9 17.7 0.00 0.00 0.00 91 1014.2
20260906110226 23 95 16.1 16.1 0.00 0.00 0.00 90 1014.3
20260906104726 23 110 12.9 19.3 0.00 0.00 0.00 90 1014.2
20260906103226 23 109 6.4 8.0 0.00 0.00 0.00 90 1014.6
20260906101726 23 96 6.4 14.5 0.00 0.00 0.00 90 1014.6
20260906100226 23 97 9.7 19.3 0.00 0.00 0.00 90 1014.4
20260906094726 23 91 8.0 22.5 0.00 0.00 0.00 90 1014.5
20260906093226 23 103 14.5 17.7 0.00 0.00 0.00 90 1014.2
20260906092426 23 99 0.0 1.6 0.00 0.00 0.00 90 1014.2
20260906091625 23 104 0.0 1.6 0.00 0.00 0.00 91 1014.1
20260906091225 23 102 0.0 0.0 0.00 0.00 0.00 91 1014.1
20260906090825 23 108 0.0 0.0 0.00 0.00 0.00 90 1014.1
20260906090625 23 91 0.0 0.0 0.00 0.00 0.00 90 1014.0
20260906090425 23 91 0.0 0.0 0.00 0.00 0.00 90 1014.1
20260906090325 23 127 0.0 0.0 0.00 0.00 0.00 90 1014.1
20260906090226 -17 146 836.9 0.0 0.00 0.00 0.00
20260906084725 24 89 0.0 3.2 0.00 0.00 0.00 90 1013.8
20260906083225 24 103 0.0 14.5 0.00 0.00 0.00 91 1013.7
20260906081725 24 110 4.8 16.1 0.00 0.00 0.00 91 1013.8
20260906080225 24 65 6.4 17.7 0.00 0.00 0.00 91 1013.8
20260906074725 24 113 0.0 14.5 0.00 0.00 0.00 91 1013.7
20260906073225 24 88 3.2 17.7 0.00 0.00 0.00 91 1013.7
20260906071725 25 102 6.4 19.3 0.00 0.00 0.00 91 1013.8
20260906070225 25 101 8.0 12.9 0.00 0.00 0.00 92 1013.8
20260906064725 25 89 6.4 11.3 0.00 0.00 0.00 92 1013.6
20260906063225 25 84 8.0 12.9 0.00 0.00 0.00 92 1013.8
20260906061725 25 111 4.8 12.9 0.00 0.00 0.00 92 1013.9
20260906060225 26 99 3.2 12.9 0.00 0.00 0.00 91 1013.7
20260906054725 26 68 8.0 14.5 0.00 0.00 0.00 91 1013.7
20260906053225 26 108 3.2 11.3 0.00 0.00 0.00 90 1013.8
20260906051725 26 111 4.8 9.7 0.00 0.00 0.00 89 1013.7
20260906050225 26 91 0.0 9.7 0.00 0.00 0.00 89 1013.9
20260906044725 26 79 3.2 9.7 0.00 0.00 0.00 88 1013.6
20260906043225 27 91 1.6 8.0 0.00 0.00 0.00 87 1013.6
20260906041725 27 81 3.2 12.9 0.00 0.00 0.00 86 1013.3
20260906040225 27 94 4.8 9.7 0.00 0.00 0.00 85 1013.3
20260906034725 27 100 1.6 9.7 0.00 0.00 0.00 85 1013.2
20260906033225 27 75 0.0 9.7 0.00 0.00 0.00 84 1013.3
20260906031725 27 63 1.6 6.4 0.00 0.00 0.00 83 1013.3
20260906030225 28 78 0.0 4.8 0.00 0.00 0.00 81 1013.2
20260906024725 28 81 0.0 4.8 0.00 0.00 0.00 81 1012.9
20260906023225 28 77 0.0 3.2 0.00 0.00 0.00 80 1012.9
20260906021725 28 94 3.2 6.4 0.00 0.00 0.00 79 1012.6
20260906020225 28 98 1.6 6.4 0.00 0.00 0.00 79 1012.3
20260906014725 28 91 1.6 6.4 0.00 0.00 0.00 78 1012.1
20260906013225 29 106 0.0 9.7 0.00 0.00 0.00 78 1012.0
20260906011725 29 48 4.8 11.3 0.00 0.00 0.00 77 1012.0
20260906010225 29 68 6.4 11.3 0.00 0.00 0.00 76 1011.8
20260906004725 30 70 4.8 9.7 0.00 0.00 0.00 75 1011.8
20260906003225 30 51 4.8 12.9 0.00 0.00 0.00 73 1011.9
20260906001725 31 89 6.4 11.3 0.00 0.00 0.00 71 1011.8
20260906000226 31 92 1.6 16.1 0.00 0.00 0.00 70 1011.7
20260905234725 31 101 9.7 17.7 0.00 0.00 0.00 70 1011.6
20260905233225 31 72 4.8 17.7 0.00 0.00 0.00 71 1011.4
20260905231725 31 41 16.1 17.7 0.00 0.00 0.00 69 1011.6
20260905230225 32 113 11.3 20.9 0.00 0.00 0.00 68 1011.4
20260905224725 32 70 8.0 14.5 0.00 0.00 0.00 68 1011.5
20260905223225 32 86 8.0 20.9 0.00 0.00 0.00 68 1011.4
20260905221725 32 45 17.7 17.7 0.00 0.00 0.00 67 1011.3
20260905220225 32 58 11.3 20.9 0.00 0.00 0.00 67 1011.4
20260905214725 32 75 9.7 17.7 0.00 0.00 0.00 67 1011.4
20260905213225 32 72 14.5 17.7 0.00 0.00 0.00 68 1011.6
20260905211725 32 59 8.0 17.7 0.00 0.00 0.00 67 1011.9
20260905210225 32 46 12.9 20.9 0.00 0.00 0.00 66 1011.9
20260905204725 32 140 11.3 25.7 0.00 0.00 0.00 66 1011.6
20260905203225 32 51 14.5 22.5 0.00 0.00 0.00 67 1011.6
20260905201725 32 84 11.3 24.1 0.00 0.00 0.00 70 1011.8
20260905200225 32 105 4.8 16.1 0.00 0.25 0.00 70 1012.0
20260905194725 32 90 6.4 16.1 0.00 0.25 0.00 71 1012.2
20260905193225 31 60 8.0 17.7 0.00 0.25 0.00 71 1012.3
20260905191725 32 45 11.3 14.5 0.00 0.25 0.00 72 1012.6
20260905190225 31 54 4.8 14.5 0.00 0.25 0.00 72 1013.1
20260905184725 31 15 9.7 12.9 0.00 0.25 0.00 73 1013.5
20260905183225 31 62 4.8 14.5 0.00 0.25 0.00 74 1013.5
20260905181725 30 47 6.4 14.5 0.00 0.25 0.00 76 1013.7
20260905180225 30 32 4.8 17.7 0.00 0.25 0.00 76 1013.5
20260905174725 30 12 9.7 17.7 0.00 0.25 0.00 77 1013.7
20260905173225 30 341 8.0 22.5 0.00 0.25 0.00 77 1013.7
20260905171725 30 325 16.1 19.3 0.00 0.25 0.00 77 1013.8
20260905170225 29 330 1.6 22.5 0.00 0.25 0.00 80 1013.7
20260905164725 30 293 6.4 14.5 0.00 0.25 0.00 76 1013.7
20260905163225 30 44 1.6 8.0 0.00 0.25 0.00 73 1013.5
20260905161725 30 322 3.2 6.4 0.00 0.25 0.00 76 1013.6
20260905160225 30 36 4.8 8.0 0.00 0.25 0.00 77 1013.5
20260905154725 30 333 3.2 8.0 0.00 0.25 0.00 75 1013.5
20260905153225 30 330 4.8 8.0 0.00 0.25 0.00 77 1013.3
20260905151725 29 322 0.0 3.2 0.00 0.25 0.00 74 1013.4